Location: Durham
(54.7770°N, 1.5720°W)
Time: 20:34:41
(UTC+01:00)

ISS - Visible Passes

Search period start: 24 May 2016 00:00
Search period end: 03 June 2016 00:00
Orbit: 402 x 404 km, 51.6° (Epoch: 24 May)

Date Brightness Start Highest point End Pass type
(mag) Time Alt. Az. Time Alt. Az. Time Alt. Az.
24 May -1.5 00:37:13 18° ESE 00:37:13 18° ESE 00:38:36 10° E visible
24 May -3.0 02:09:47 17° WSW 02:12:02 45° S 02:15:10 10° E visible
24 May -2.9 03:45:05 10° W 03:48:11 41° SSW 03:51:18 10° ESE visible
25 May -2.9 01:18:09 27° SSW 01:19:23 38° SSE 01:22:27 10° E visible
25 May -3.1 02:52:23 10° W 02:55:32 47° S 02:58:41 10° ESE visible
26 May -2.6 00:25:54 27° S 00:26:45 31° SSE 00:29:41 10° E visible
26 May -3.2 01:59:41 10° WSW 02:02:51 49° S 02:06:02 10° ESE visible
26 May -2.6 03:36:01 10° W 03:38:59 31° SSW 03:41:55 10° SE visible
26 May -2.2 23:31:29 10° SSW 23:34:09 23° SSE 23:36:51 10° E visible
27 May -3.1 01:07:01 10° WSW 01:10:11 46° S 01:13:20 10° E visible
27 May -2.9 02:43:15 10° W 02:46:20 39° SSW 02:49:25 10° ESE visible
27 May -1.8 22:39:23 10° SSW 22:41:36 17° SSE 22:43:50 10° ESE visible
28 May -3.0 00:14:24 10° WSW 00:17:30 41° SSE 00:20:36 10° E visible
28 May -3.1 01:50:30 10° W 01:53:40 45° S 01:56:49 10° ESE visible
28 May -2.1 03:27:03 10° W 03:29:40 22° SSW 03:32:16 10° SSE visible
28 May -2.7 23:21:51 10° SW 23:24:50 33° SSE 23:27:50 10° E visible
29 May -3.2 00:57:48 10° WSW 01:00:58 48° S 01:04:09 10° ESE visible
29 May -2.5 02:34:10 10° W 02:37:04 29° SSW 02:39:57 10° SE visible
29 May -2.3 22:29:26 10° SW 22:32:13 26° SSE 22:35:00 10° E visible
30 May -3.1 00:05:06 10° WSW 00:08:16 47° S 00:11:26 10° E visible
30 May -2.8 01:41:22 10° W 01:44:26 37° SSW 01:47:28 10° SE visible
30 May -1.6 03:18:25 10° WSW 03:20:15 14° SW 03:22:05 10° S visible
30 May -3.0 23:12:27 10° WSW 23:15:34 42° S 23:18:41 10° E visible
31 May -3.0 00:48:36 10° W 00:51:44 44° S 00:54:52 10° ESE visible
31 May -2.0 02:25:13 10° WSW 02:27:42 20° SSW 02:28:37 18° S visible
31 May -3.1 23:55:51 10° WSW 23:59:01 48° S 00:02:12 10° ESE visible
01 Jun -2.4 01:32:16 10° W 01:35:06 27° SSW 01:35:51 24° S visible
01 Jun -3.1 23:03:07 10° WSW 23:06:18 48° S 23:09:28 10° ESE visible
02 Jun -2.7 00:39:25 10° W 00:42:26 35° SSW 00:44:03 21° SE visible
02 Jun -2.9 23:46:37 10° W 23:49:44 42° SSW 23:52:33 12° ESE visible
